Simultaneous Nadir Overpasses (SNOs) Predictions

Prediction of SNOs between GOES-15 and TERRA Satellite Orbit:

Table of predicted SNOs for the next 14.0 days since TLE Epoch: 9/13/2014
Index Date Time (GOES-15) GOES-15 Lat,Lon TERRA Lat,Lon Distance(km) Time Diff (sec)
1 09/14/2014 07:19:07 0.34,-134.93 0.99,-132.00 333.56 80
2 09/14/2014 19:37:42 -0.35,-134.97 0.12,-137.16 248.56 80
3 09/16/2014 19:28:10 -0.35,-135.04 -0.55,-134.21 95.21 80
4 09/17/2014 07:46:54 0.36,-135.03 -0.56,-139.40 495.81 80
5 09/18/2014 19:15:57 -0.34,-135.10 -1.17,-131.24 438.62 80
6 09/19/2014 07:34:41 0.35,-135.09 0.07,-136.43 152.48 80
7 09/21/2014 07:25:08 0.35,-135.15 0.71,-133.47 190.55 80
8 09/21/2014 19:43:43 -0.36,-135.18 0.39,-138.63 392.17 80
9 09/23/2014 19:31:30 -0.35,-135.23 -0.27,-135.67 49.56 80
10 09/25/2014 19:21:56 -0.35,-135.28 -0.88,-132.70 292.54 80
11 09/26/2014 07:43:20 0.36,-135.27 -0.20,-137.89 298.37 80




NCC Satellite Simultaneous Nadir Overpasses (SNOs) Prediction Service
